GSAT0220 (GALILEO 24)

Last updated on Thu Sep 17 2026 00:02:48 GMT+0000 (Coordinated Universal Time)

1 43567U 18060D 26259.06046670 -.00000101 00000+0 00000+0 0 9994 2 43567 57.1353 339.3319 0003785 270.1259 89.8832 1.70476413 50726
UTC large
Height (km)
Speed (km/s)
/
Latitude / Longitude
Inclination (degrees)
Orbital Period (minutes)
Azimuth
Elevation
Range (km)
Doppler Factor

Next 0 passes for location: London (51.5072 / 0.1276)

No passes found over London.
GSAT0220 (GALILEO 24)